RPA3577 KEWR-KMSY

Flight info

Callsign RPA3577
Flight time N/A
Altitude 28000
Route LANNA J48 CSN FANPO Q40 NIOLA MERDN TRSSH1
Aircraft E75L/M-SDE3GILORVW/S

Departure

Time 2026-05-07 01:59
Airport Newark Liberty International Airport (KEWR)

Arrival

Time N/A
Airport Louis Armstrong New Orleans International Airport (KMSY)
Time Latitude Longitude Altitude Speed Heading
2026-05-07 01:35 40.69560 -74.17236 20 ft 0 kts 317°
2026-05-07 01:49 40.69547 -74.17220 20 ft 4 kts 320°
2026-05-07 01:49 40.69525 -74.17201 20 ft 4 kts 341°
2026-05-07 01:49 40.69508 -74.17203 20 ft 2 kts 80°
2026-05-07 01:50 40.69508 -74.17206 20 ft 0 kts 83°
2026-05-07 01:53 40.69509 -74.17197 20 ft 3 kts 82°
2026-05-07 01:54 40.69514 -74.17146 20 ft 8 kts 83°
2026-05-07 01:54 40.69525 -74.17049 20 ft 12 kts 79°
2026-05-07 01:54 40.69550 -74.16952 21 ft 11 kts 43°
2026-05-07 01:54 40.69633 -74.16894 20 ft 16 kts 26°
2026-05-07 01:55 40.69738 -74.16827 21 ft 13 kts 28°
2026-05-07 01:55 40.69795 -74.16717 19 ft 16 kts 64°
2026-05-07 01:55 40.69874 -74.16621 21 ft 17 kts 27°
2026-05-07 01:55 40.69982 -74.16551 19 ft 17 kts 26°
2026-05-07 01:56 40.70057 -74.16502 19 ft 8 kts 33°
2026-05-07 01:56 40.70066 -74.16469 18 ft 1 kts 99°
2026-05-07 01:58 40.70062 -74.16430 18 ft 8 kts 97°
2026-05-07 01:58 40.70043 -74.16361 19 ft 8 kts 161°
2026-05-07 01:58 40.69979 -74.16393 17 ft 15 kts 207°
2026-05-07 01:58 40.69698 -74.16574 19 ft 76 kts 206°
2026-05-07 01:59 40.69043 -74.16989 20 ft 132 kts 205°
2026-05-07 01:59 40.68070 -74.17607 52 ft 175 kts 206°
2026-05-07 01:59 40.66921 -74.18328 526 ft 191 kts 208°
2026-05-07 01:59 40.65630 -74.19017 939 ft 217 kts 204°
2026-05-07 02:00 40.64116 -74.19280 1933 ft 220 kts 173°
2026-05-07 02:00 40.63158 -74.18857 2537 ft 222 kts 162°
2026-05-07 02:00 40.61667 -74.18213 2713 ft 225 kts 179°
2026-05-07 02:00 40.60137 -74.18328 2555 ft 216 kts 201°
2026-05-07 02:01 40.58851 -74.19150 2586 ft 196 kts 220°
2026-05-07 02:01 40.57810 -74.20279 2902 ft 194 kts 224°
2026-05-07 02:01 40.56754 -74.21458 3303 ft 212 kts 220°
2026-05-07 02:01 40.55462 -74.22677 3259 ft 241 kts 218°